GLRNC EGBO-EGBO

Flight info

Callsign GLRNC
Flight time 0h 2m
Altitude 1000
Route CIRCUIT
Aircraft P28A/L-VGD/A

Departure

Time 2026-05-04 17:33
Airport Wolverhampton Halfpenny Green Airport (EGBO)

Arrival

Time 2026-05-04 17:35
Airport Wolverhampton Halfpenny Green Airport (EGBO)
Time Latitude Longitude Altitude Speed Heading
2026-05-04 17:32 52.53050 -2.25459 774 ft 89 kts 323°
2026-05-04 17:33 52.52809 -2.27973 1077 ft 101 kts 214°
2026-05-04 17:33 52.52266 -2.28721 1175 ft 100 kts 222°
2026-05-04 17:34 52.50839 -2.28723 872 ft 70 kts 98°
2026-05-04 17:34 52.50852 -2.27984 685 ft 62 kts 71°
2026-05-04 17:35 52.51650 -2.26637 276 ft 48 kts 39°
2026-05-04 17:35 52.52257 -2.25923 535 ft 60 kts 27°
2026-05-04 17:35 52.52660 -2.25560 783 ft 71 kts 27°
2026-05-04 17:36 52.53100 -2.25508 999 ft 73 kts 335°
2026-05-04 17:36 52.53451 -2.26178 1101 ft 80 kts 308°
2026-05-04 17:36 52.53681 -2.27001 1220 ft 86 kts 273°
2026-05-04 17:36 52.53304 -2.27866 1230 ft 96 kts 224°
2026-05-04 17:37 52.52764 -2.28561 1250 ft 104 kts 212°
2026-05-04 17:37 52.52131 -2.29151 1227 ft 102 kts 210°
2026-05-04 17:37 52.51534 -2.29486 1099 ft 83 kts 173°
2026-05-04 17:37 52.51154 -2.28962 983 ft 73 kts 107°
2026-05-04 17:38 52.51038 -2.28220 827 ft 66 kts 98°
2026-05-04 17:38 52.51063 -2.27515 623 ft 63 kts 57°
2026-05-04 17:38 52.51339 -2.27014 414 ft 58 kts 42°
2026-05-04 17:38 52.51660 -2.26627 288 ft 54 kts 33°
2026-05-04 17:39 52.52003 -2.26212 275 ft 19 kts 37°
2026-05-04 17:39 52.51946 -2.26106 274 ft 17 kts 154°
2026-05-04 17:39 52.51827 -2.26020 271 ft 20 kts 158°
2026-05-04 17:40 52.51704 -2.25926 273 ft 14 kts 173°
2026-05-04 17:40 52.51669 -2.26040 275 ft 13 kts 281°
2026-05-04 17:40 52.51679 -2.26182 275 ft 13 kts 281°
2026-05-04 17:40 52.51694 -2.26347 274 ft 16 kts 278°
2026-05-04 17:41 52.51652 -2.26421 275 ft 11 kts 181°
2026-05-04 17:41 52.51572 -2.26438 267 ft 10 kts 189°
2026-05-04 17:41 52.51527 -2.26395 268 ft 9 kts 100°
2026-05-04 17:41 52.51520 -2.26291 270 ft 9 kts 81°
2026-05-04 17:42 52.51543 -2.26305 270 ft 6 kts 183°
2026-05-04 17:42 52.51539 -2.26298 270 ft 0 kts 100°